カタログに戻る

STARLINK-35252

運用中通信VLEO
NORAD 65850·PAYLOAD·🇺🇸 United States

打ち上げ Sep 29, 2025 から Vandenberg Space Force Base

Loading…

次のパス (今後24時間)

TLE

最新Source: CelesTrak SupGP

元期: Sep 15, 2026, 03:47 UTC

1 65850C 25221AD  26258.15812500 -.00007281  00000+0 -21504-3 0  2583
2 65850  53.1568 286.8015 0001188  94.9857 233.8823 15.34405992    16

AllMySatでSTARLINK-35252をリアルタイム追跡

Download on the App Store